Flag for U.S.A. Weather past 2 weeks in Clarksville, Tennessee, U.S.A.

Now
53 °F

Clear.


Feels Like: 53 °F
Forecast: 50 / 67 °F
Wind: No wind

Location: Outlaw Field


UV Index: 5 (Moderate)

Visibility: 10 mi


Pressure: 30.24 "Hg

Humidity: 56%

Dew point: 38 °F

Location of ClarksvilleLocation

Historic Weather in Clarksville

°F

Clarksville temperature yesterday

Maximum temperature yesterday: 68 °F (at 4:52 PM)
Minimum temperature yesterday: 41 °F (at 1:52 AM)
Average temperature yesterday: 55 °F

Past Weeks' High & Low Weather Summary

 TemperatureHumidityPressure
High79 °F (Apr 12, 2:52 PM)100% (Apr 12, 3:52 AM)30.35 "Hg (Apr 12, 3:52 AM)
Low29 °F (Apr 16, 2:52 AM)27% (Apr 9, 4:52 PM)29.49 "Hg (Apr 7, 10:52 AM)
Average56 °F65%29.98 "Hg
* Reported Apr 2 11:52 PM — Apr 17 11:52 PM, Clarksville, Weather by CustomWeather, © 2014

Note: Actual official high and low records may vary slightly from our data, if they occured in-between our weather recording intervals... More about our weather records

Advertising

Historic Weather Conditions — Data for Previous 24 hours

 ConditionsComfort  
Time TempWeatherWind HumidityBarometerVisibility
11:52 PM
Apr 17
53 °FClear.No wind56%30.24 "Hg10 mi
10:52 PM54 °FClear.3 mph51%30.26 "Hg10 mi
9:52 PM57 °FClear.5 mph42%30.26 "Hg10 mi
8:52 PM57 °FClear.5 mph46%30.25 "Hg10 mi
7:52 PM58 °FClear.7 mph46%30.24 "Hg10 mi
6:52 PM63 °FSunny.8 mph38%30.23 "Hg10 mi
5:52 PM67 °FSunny.8 mph32%30.23 "Hg10 mi
4:52 PM68 °FSunny.5 mph28%30.24 "Hg10 mi
3:52 PM67 °FSunny.7 mph33%30.24 "Hg10 mi
2:52 PM66 °FSunny.6 mph33%30.26 "Hg10 mi
1:52 PM66 °FSunny.6 mph37%30.28 "Hg10 mi
12:52 PM65 °FSunny.7 mph36%30.31 "Hg10 mi
11:52 AM62 °FSunny.N/A38%30.34 "Hg10 mi
10:52 AM61 °FSunny.12 mph41%30.35 "Hg10 mi
9:52 AM57 °FSunny.12 mph46%30.35 "Hg10 mi
8:52 AM54 °FSunny.9 mph49%30.34 "Hg10 mi
7:52 AM50 °FSunny.5 mph57%30.33 "Hg10 mi
6:52 AM45 °FSunny.6 mph65%30.31 "Hg10 mi
5:52 AM44 °FClear.7 mph65%30.28 "Hg10 mi
4:52 AM42 °FClear.8 mph68%30.26 "Hg10 mi
3:52 AM44 °FClear.6 mph65%30.24 "Hg10 mi
2:52 AM41 °FClear.6 mph70%30.22 "Hg10 mi
1:52 AM41 °FClear.6 mph67%30.21 "Hg10 mi
12:52 AM42 °FClear.7 mph65%30.21 "Hg10 mi
Weather by CustomWeather, © 2014

See weather overview